This is the latest recevied weather packets stored in our database for station/object K1TTC. If no packets are shown the sender has not sent any weather packets the latest 10 day(s).
| Time | Temp. | Humidity | Pressure | Rain* | Wind** | Luminosity | Snow |
|---|---|---|---|---|---|---|---|
| 1777901537 | 16.11° C | 37% | 1010.8 hPa | 0 mm | - | 666 W/m² | - |
| 1777900935 | 15.56° C | 37% | 1011 hPa | 0 mm | - | 640 W/m² | - |
| 1777900335 | 15° C | 38% | 1011 hPa | 0 mm | - | 608 W/m² | - |
| 1777899733 | 15° C | 39% | 1011.2 hPa | 0 mm | - | 584 W/m² | - |
| 1777899134 | 14.44° C | 41% | 1011.4 hPa | 0 mm | - | 555 W/m² | - |
| 1777898534 | 13.89° C | 40% | 1011.6 hPa | 0 mm | - | 527 W/m² | - |
| 1777897934 | 13.33° C | 42% | 1011.7 hPa | 0 mm | - | 508 W/m² | - |
| 1777897326 | 12.78° C | 44% | 1011.8 hPa | 0 mm | - | 468 W/m² | - |
| 1777896726 | 11.67° C | 47% | 1011.7 hPa | 0 mm | - | 434 W/m² | - |
| 1777896123 | 10.56° C | 49% | 1011.7 hPa | 0 mm | - | 70 W/m² | - |
| 1777895525 | 9.44° C | 51% | 1011.6 hPa | 0 mm | - | 77 W/m² | - |
| 1777894924 | 8.89° C | 53% | 1011.7 hPa | 0 mm | - | 93 W/m² | - |
| 1777894321 | 8.33° C | 53% | 1011.9 hPa | 0 mm | - | 84 W/m² | - |
| 1777893726 | 7.78° C | 54% | 1011.8 hPa | 0 mm | - | 69 W/m² | - |
| 1777893121 | 7.78° C | 55% | 1011.7 hPa | 0 mm | - | 65 W/m² | - |
| 1777892523 | 7.78° C | 55% | 1011.8 hPa | 0 mm | - | 56 W/m² | - |
| 1777891922 | 7.22° C | 54% | 1011.7 hPa | 0 mm | - | 35 W/m² | - |
| 1777891317 | 7.22° C | 55% | 1011.9 hPa | 0 mm | - | 28 W/m² | - |
| 1777890718 | 7.22° C | 54% | 1011.8 hPa | 0 mm | - | 30 W/m² | - |
| 1777890119 | 7.22° C | 54% | 1011.8 hPa | 0 mm | - | 39 W/m² | - |
| 1777889517 | 7.22° C | 54% | 1011.8 hPa | 0 mm | - | 21 W/m² | - |
| 1777888917 | 7.22° C | 54% | 1011.7 hPa | 0 mm | - | 12 W/m² | - |
| 1777888315 | 7.22° C | 54% | 1011.8 hPa | 0 mm | - | 5 W/m² | - |
| 1777887714 | 7.22° C | 54% | 1011.7 hPa | 0 mm | - | 0 W/m² | - |
| 1777887113 | 7.22° C | 54% | 1011.7 hPa | 0 mm | - | 0 W/m² | - |
* Rain latest hour (hover to see other rain measurements)
** Current wind speed in m/s (hover to see current wind gust speed)